Time,TemperatureF,DewpointF,PressureIn,WindDirection,WindDirectionDegrees,WindSpeedMPH,WindSpeedGustMPH,Humidity,HourlyPrecipIn,Conditions,Clouds,dailyrainin,SoftwareType,DateUTC
2013-01-05 00:00:00,31.4,22.4,30.09,North,352,9.0,12.0,69,0.00,,OVC032,0.00,VWS V14.01,2013-01-05 05:00:00,
2013-01-05 00:01:00,31.4,22.4,30.09,NW,319,8.0,11.0,69,0.00,,OVC032,0.00,VWS V14.01,2013-01-05 05:01:00,
2013-01-05 00:02:00,31.5,22.5,30.09,North,7,15.0,18.0,69,0.00,,OVC032,0.00,VWS V14.01,2013-01-05 05:02:00,
2013-01-05 00:07:00,31.5,22.2,30.09,North,353,7.0,8.0,68,0.00,,OVC032,0.00,VWS V14.01,2013-01-05 05:07:00,
2013-01-05 00:12:00,31.5,21.8,30.09,North,350,7.0,11.0,67,0.00,,OVC032,0.00,VWS V14.01,2013-01-05 05:12:00,
2013-01-05 00:17:00,31.5,22.2,30.10,North,351,4.0,10.0,68,0.00,,OVC032,0.00,VWS V14.01,2013-01-05 05:17:00,
2013-01-05 00:22:00,31.4,22.1,30.09,NW,311,5.0,9.0,68,0.00,,OVC032,0.00,VWS V14.01,2013-01-05 05:22:00,
2013-01-05 00:27:00,31.4,22.1,30.09,NNW,340,4.0,11.0,68,0.00,,OVC032,0.00,VWS V14.01,2013-01-05 05:27:00,
2013-01-05 00:32:00,31.4,22.1,30.09,NW,324,11.0,11.0,68,0.00,,OVC032,0.00,VWS V14.01,2013-01-05 05:32:00,
2013-01-05 00:37:00,31.5,22.5,30.09,NNW,341,5.0,5.0,69,0.00,,OVC032,0.00,VWS V14.01,2013-01-05 05:37:00,
2013-01-05 00:42:00,31.5,22.2,30.09,NW,323,10.0,13.0,68,0.00,,OVC032,0.00,VWS V14.01,2013-01-05 05:42:00,
2013-01-05 00:47:00,31.6,22.3,30.09,NW,319,10.0,12.0,68,0.00,,OVC032,0.00,VWS V14.01,2013-01-05 05:47:00,
2013-01-05 00:52:00,31.5,22.2,30.09,NW,324,10.0,10.0,68,0.00,,OVC032,0.00,VWS V14.01,2013-01-05 05:52:00,
2013-01-05 00:57:00,31.5,22.2,30.09,NW,323,6.0,7.0,68,0.00,,OVC032,0.00,VWS V14.01,2013-01-05 05:57:00,
2013-01-05 01:02:00,31.5,22.2,30.09,NNW,330,7.0,8.0,68,0.00,,OVC032,0.00,VWS V14.01,2013-01-05 06:02:00,
2013-01-05 01:07:00,31.4,22.1,30.09,North,350,8.0,9.0,68,0.00,,OVC032,0.00,VWS V14.01,2013-01-05 06:07:00,
2013-01-05 01:12:00,31.4,22.4,30.09,NW,318,5.0,9.0,69,0.00,,OVC032,0.00,VWS V14.01,2013-01-05 06:12:00,
2013-01-05 01:17:00,31.4,22.1,30.09,WNW,303,8.0,10.0,68,0.00,,OVC032,0.00,VWS V14.01,2013-01-05 06:17:00,
2013-01-05 01:22:00,31.4,22.1,30.09,WNW,303,9.0,9.0,68,0.00,,OVC032,0.00,VWS V14.01,2013-01-05 06:22:00,
2013-01-05 01:27:00,31.3,22.0,30.09,NNW,331,5.0,7.0,68,0.00,,OVC032,0.00,VWS V14.01,2013-01-05 06:27:00,
2013-01-05 01:32:00,31.3,22.3,30.09,North,357,5.0,5.0,69,0.00,,OVC032,0.00,VWS V14.01,2013-01-05 06:32:00,
2013-01-05 01:37:00,31.1,22.1,30.09,NW,313,2.0,9.0,69,0.00,,OVC032,0.00,VWS V14.01,2013-01-05 06:37:00,
2013-01-05 01:42:00,31.1,22.1,30.09,NW,323,3.0,5.0,69,0.00,,OVC032,0.00,VWS V14.01,2013-01-05 06:42:00,
2013-01-05 01:47:00,31.0,22.0,30.10,NNW,334,3.0,7.0,69,0.00,,OVC032,0.00,VWS V14.01,2013-01-05 06:47:00,
2013-01-05 01:52:00,30.9,22.3,30.10,NNW,346,3.0,4.0,70,0.00,,OVC032,0.00,VWS V14.01,2013-01-05 06:52:00,
2013-01-05 01:57:00,30.8,22.2,30.10,NNW,333,2.0,2.0,70,0.00,,OVC032,0.00,VWS V14.01,2013-01-05 06:57:00,
2013-01-05 02:02:00,30.6,22.0,30.10,NNW,333,3.0,4.0,70,0.00,,BKN032,0.00,VWS V14.01,2013-01-05 07:02:00,
2013-01-05 02:07:00,30.5,22.2,30.10,NNW,338,3.0,4.0,71,0.00,,BKN032,0.00,VWS V14.01,2013-01-05 07:07:00,
2013-01-05 02:13:00,30.4,22.1,30.11,NW,325,5.0,5.0,71,0.00,,BKN032,0.00,VWS V14.01,2013-01-05 07:13:00,
2013-01-05 02:18:00,30.3,22.0,30.11,NNW,338,2.0,4.0,71,0.00,,BKN032,0.00,VWS V14.01,2013-01-05 07:18:00,
2013-01-05 02:23:00,30.3,22.4,30.11,NW,317,2.0,3.0,72,0.00,,BKN032,0.00,VWS V14.01,2013-01-05 07:23:00,
2013-01-05 02:28:00,30.3,22.4,30.11,NNW,331,1.0,2.0,72,0.00,,BKN032,0.00,VWS V14.01,2013-01-05 07:28:00,
2013-01-05 02:33:00,30.3,22.4,30.12,NNW,338,4.0,4.0,72,0.00,,BKN032,0.00,VWS V14.01,2013-01-05 07:33:00,
2013-01-05 02:38:00,30.3,22.4,30.12,NNW,348,2.0,5.0,72,0.00,,BKN032,0.00,VWS V14.01,2013-01-05 07:38:00,
2013-01-05 02:43:00,30.4,22.1,30.12,NNW,327,4.0,6.0,71,0.00,,BKN032,0.00,VWS V14.01,2013-01-05 07:43:00,
2013-01-05 02:48:00,30.4,22.1,30.12,North,357,4.0,4.0,71,0.00,,BKN032,0.00,VWS V14.01,2013-01-05 07:48:00,
2013-01-05 02:53:00,30.2,21.9,30.12,NNW,329,3.0,3.0,71,0.00,,BKN032,0.00,VWS V14.01,2013-01-05 07:53:00,
2013-01-05 02:58:00,30.1,21.9,30.13,WNW,286,1.0,3.0,71,0.00,,BKN032,0.00,VWS V14.01,2013-01-05 07:58:00,
2013-01-05 03:03:00,29.9,22.0,30.14,NW,324,2.0,4.0,72,0.00,,BKN032,0.00,VWS V14.01,2013-01-05 08:03:00,
2013-01-05 03:08:00,29.8,21.9,30.14,NW,308,1.0,2.0,72,0.00,,BKN032,0.00,VWS V14.01,2013-01-05 08:08:00,
2013-01-05 03:13:00,29.6,21.7,30.15,NW,304,3.0,3.0,72,0.00,,BKN032,0.00,VWS V14.01,2013-01-05 08:13:00,
2013-01-05 03:18:00,29.5,21.9,30.15,WNW,297,1.0,4.0,73,0.00,,BKN032,0.00,VWS V14.01,2013-01-05 08:18:00,
2013-01-05 03:23:00,29.4,21.8,30.15,NW,326,3.0,4.0,73,0.00,,BKN032,0.00,VWS V14.01,2013-01-05 08:23:00,
2013-01-05 03:28:00,29.4,21.8,30.15,NW,323,3.0,5.0,73,0.00,,BKN032,0.00,VWS V14.01,2013-01-05 08:28:00,
2013-01-05 03:33:00,29.6,21.7,30.15,NW,314,1.0,3.0,72,0.00,,BKN032,0.00,VWS V14.01,2013-01-05 08:33:00,
2013-01-05 03:38:00,29.6,21.7,30.15,NNW,327,2.0,3.0,72,0.00,,BKN032,0.00,VWS V14.01,2013-01-05 08:38:00,
2013-01-05 03:43:00,29.7,21.8,30.15,NNW,332,5.0,5.0,72,0.00,,BKN032,0.00,VWS V14.01,2013-01-05 08:43:00,
2013-01-05 03:48:00,29.6,21.7,30.16,NW,320,1.0,3.0,72,0.00,,BKN032,0.00,VWS V14.01,2013-01-05 08:48:00,
2013-01-05 03:53:00,29.4,21.5,30.15,WNW,303,0.0,1.0,72,0.00,,BKN032,0.00,VWS V14.01,2013-01-05 08:53:00,
2013-01-05 03:58:00,29.2,21.6,30.16,WNW,292,0.0,1.0,73,0.00,,BKN032,0.00,VWS V14.01,2013-01-05 08:58:00,
2013-01-05 04:03:00,29.0,21.4,30.16,NNW,335,0.0,0.0,73,0.00,,BKN034,0.00,VWS V14.01,2013-01-05 09:03:00,
2013-01-05 04:08:00,28.9,21.4,30.16,NNW,335,1.0,1.0,73,0.00,,BKN034,0.00,VWS V14.01,2013-01-05 09:08:00,
2013-01-05 04:13:00,28.7,21.5,30.16,NNW,335,0.0,0.0,74,0.00,,BKN034,0.00,VWS V14.01,2013-01-05 09:13:00,
2013-01-05 04:18:00,28.5,21.0,30.16,NNW,334,1.0,1.0,73,0.00,,BKN034,0.00,VWS V14.01,2013-01-05 09:18:00,
2013-01-05 04:23:00,28.3,21.1,30.16,NNW,334,1.0,1.0,74,0.00,,BKN034,0.00,VWS V14.01,2013-01-05 09:23:00,
2013-01-05 04:28:00,28.1,20.9,30.16,NNW,336,1.0,2.0,74,0.00,,BKN034,0.00,VWS V14.01,2013-01-05 09:28:00,
2013-01-05 04:33:00,27.9,21.0,30.16,ENE,73,1.0,2.0,75,0.00,,BKN034,0.00,VWS V14.01,2013-01-05 09:33:00,
2013-01-05 04:38:00,27.7,21.1,30.16,East,100,1.0,2.0,76,0.00,,BKN034,0.00,VWS V14.01,2013-01-05 09:38:00,
2013-01-05 04:43:00,27.6,21.4,30.16,East,100,1.0,1.0,77,0.00,,BKN034,0.00,VWS V14.01,2013-01-05 09:43:00,
2013-01-05 04:48:00,27.5,21.5,30.16,East,100,1.0,2.0,78,0.00,,BKN034,0.00,VWS V14.01,2013-01-05 09:48:00,
2013-01-05 04:53:00,27.6,21.6,30.16,East,101,1.0,1.0,78,0.00,,BKN034,0.00,VWS V14.01,2013-01-05 09:53:00,
2013-01-05 04:58:00,27.7,21.8,30.16,East,101,1.0,1.0,78,0.00,,BKN034,0.00,VWS V14.01,2013-01-05 09:58:00,
2013-01-05 05:03:00,27.6,21.6,30.16,East,101,1.0,1.0,78,0.00,,BKN034,0.00,VWS V14.01,2013-01-05 10:03:00,
2013-01-05 05:08:00,27.6,21.6,30.16,East,101,1.0,1.0,78,0.00,,BKN034,0.00,VWS V14.01,2013-01-05 10:08:00,
2013-01-05 05:13:00,27.6,21.6,30.16,ESE,112,1.0,3.0,78,0.00,,BKN034,0.00,VWS V14.01,2013-01-05 10:13:00,
2013-01-05 05:18:00,27.7,21.8,30.16,ESE,121,1.0,2.0,78,0.00,,BKN034,0.00,VWS V14.01,2013-01-05 10:18:00,
2013-01-05 05:23:00,27.6,21.6,30.16,ESE,121,2.0,2.0,78,0.00,,BKN034,0.00,VWS V14.01,2013-01-05 10:23:00,
2013-01-05 05:28:00,27.4,21.5,30.16,ESE,121,2.0,2.0,78,0.00,,BKN034,0.00,VWS V14.01,2013-01-05 10:28:00,
2013-01-05 05:33:00,27.3,21.4,30.17,ESE,121,0.0,1.0,78,0.00,,BKN034,0.00,VWS V14.01,2013-01-05 10:33:00,
2013-01-05 05:38:00,27.3,21.7,30.17,ESE,121,1.0,2.0,79,0.00,,BKN034,0.00,VWS V14.01,2013-01-05 10:38:00,
2013-01-05 05:43:00,27.3,21.7,30.17,ESE,123,2.0,2.0,79,0.00,,BKN034,0.00,VWS V14.01,2013-01-05 10:43:00,
2013-01-05 05:48:00,27.3,21.7,30.17,ESE,123,0.0,1.0,79,0.00,,BKN034,0.00,VWS V14.01,2013-01-05 10:48:00,
2013-01-05 05:53:00,27.3,21.7,30.17,ESE,123,0.0,0.0,79,0.00,,BKN034,0.00,VWS V14.01,2013-01-05 10:53:00,
2013-01-05 05:58:00,27.4,21.8,30.17,ESE,123,2.0,2.0,79,0.00,,BKN034,0.00,VWS V14.01,2013-01-05 10:58:00,
2013-01-05 06:04:00,27.5,21.5,30.17,West,268,2.0,4.0,78,0.00,,OVC032,0.00,VWS V14.01,2013-01-05 11:04:00,
2013-01-05 06:09:00,28.0,21.7,30.17,NW,314,1.0,2.0,77,0.00,,OVC032,0.00,VWS V14.01,2013-01-05 11:09:00,
2013-01-05 06:14:00,28.4,21.5,30.17,NW,325,2.0,6.0,75,0.00,,OVC032,0.00,VWS V14.01,2013-01-05 11:14:00,
2013-01-05 06:19:00,28.9,21.7,30.17,NNW,338,1.0,2.0,74,0.00,,OVC032,0.00,VWS V14.01,2013-01-05 11:19:00,
2013-01-05 06:24:00,28.9,22.0,30.17,SW,218,2.0,2.0,75,0.00,,OVC032,0.00,VWS V14.01,2013-01-05 11:24:00,
2013-01-05 06:29:00,28.9,22.0,30.17,SSW,202,1.0,1.0,75,0.00,,OVC032,0.00,VWS V14.01,2013-01-05 11:29:00,
2013-01-05 06:34:00,29.0,22.1,30.17,SSE,155,2.0,2.0,75,0.00,,OVC032,0.00,VWS V14.01,2013-01-05 11:34:00,
2013-01-05 06:39:00,28.9,22.3,30.17,SSE,155,1.0,2.0,76,0.00,,OVC032,0.00,VWS V14.01,2013-01-05 11:39:00,
2013-01-05 06:44:00,28.8,22.2,30.17,SSE,150,2.0,2.0,76,0.00,,OVC032,0.00,VWS V14.01,2013-01-05 11:44:00,
2013-01-05 06:49:00,28.6,22.3,30.18,SE,146,1.0,1.0,77,0.00,,OVC032,0.00,VWS V14.01,2013-01-05 11:49:00,
2013-01-05 06:54:00,28.4,22.4,30.17,SE,146,2.0,2.0,78,0.00,,OVC032,0.00,VWS V14.01,2013-01-05 11:54:00,
2013-01-05 06:59:00,28.1,22.4,30.18,SE,146,0.0,2.0,79,0.00,,OVC032,0.00,VWS V14.01,2013-01-05 11:59:00,
2013-01-05 07:04:00,27.9,21.9,30.17,SSE,164,2.0,2.0,78,0.00,,OVC032,0.00,VWS V14.01,2013-01-05 12:04:00,
2013-01-05 07:09:00,27.8,22.1,30.17,ENE,71,2.0,3.0,79,0.00,,OVC032,0.00,VWS V14.01,2013-01-05 12:09:00,
2013-01-05 07:14:00,27.6,22.0,30.17,ESE,105,3.0,3.0,79,0.00,,OVC032,0.00,VWS V14.01,2013-01-05 12:14:00,
2013-01-05 07:19:00,27.4,21.8,30.17,ESE,109,2.0,2.0,79,0.00,,OVC032,0.00,VWS V14.01,2013-01-05 12:19:00,
2013-01-05 07:24:00,27.2,21.6,30.17,ESE,120,1.0,3.0,79,0.00,,OVC032,0.00,VWS V14.01,2013-01-05 12:24:00,
2013-01-05 07:29:00,27.0,21.4,30.17,ESE,116,2.0,3.0,79,0.00,,OVC032,0.00,VWS V14.01,2013-01-05 12:29:00,
2013-01-05 07:34:00,26.6,21.0,30.17,East,95,2.0,3.0,79,0.00,,OVC032,0.00,VWS V14.01,2013-01-05 12:34:00,
2013-01-05 07:39:00,26.0,21.0,30.17,East,87,0.0,1.0,81,0.00,,OVC032,0.00,VWS V14.01,2013-01-05 12:39:00,
2013-01-05 07:44:00,25.8,20.8,30.17,East,87,0.0,1.0,81,0.00,,OVC032,0.00,VWS V14.01,2013-01-05 12:44:00,
2013-01-05 07:49:00,25.6,20.9,30.17,East,88,1.0,2.0,82,0.00,,OVC032,0.00,VWS V14.01,2013-01-05 12:49:00,
2013-01-05 07:54:00,25.6,21.2,30.17,ESE,109,2.0,3.0,83,0.00,,OVC032,0.00,VWS V14.01,2013-01-05 12:54:00,
2013-01-05 07:59:00,25.5,20.8,30.17,South,191,2.0,2.0,82,0.00,,OVC032,0.00,VWS V14.01,2013-01-05 12:59:00,
2013-01-05 08:04:00,25.5,20.8,30.17,South,191,1.0,1.0,82,0.00,,OVC030,0.00,VWS V14.01,2013-01-05 13:04:00,
2013-01-05 08:09:00,25.3,20.9,30.17,ESE,112,3.0,3.0,83,0.00,,OVC030,0.00,VWS V14.01,2013-01-05 13:09:00,
2013-01-05 08:14:00,25.2,20.8,30.18,ESE,112,1.0,1.0,83,0.00,,OVC030,0.00,VWS V14.01,2013-01-05 13:14:00,
2013-01-05 08:19:00,25.0,21.1,30.18,ESE,102,1.0,1.0,85,0.00,,OVC030,0.00,VWS V14.01,2013-01-05 13:19:00,
2013-01-05 08:24:00,24.9,21.0,30.18,ESE,103,2.0,3.0,85,0.00,,OVC030,0.00,VWS V14.01,2013-01-05 13:24:00,
2013-01-05 08:29:00,24.9,20.8,30.17,SE,125,3.0,4.0,84,0.00,,OVC030,0.00,VWS V14.01,2013-01-05 13:29:00,
2013-01-05 08:34:00,25.0,20.9,30.17,ESE,114,3.0,3.0,84,0.00,,OVC030,0.00,VWS V14.01,2013-01-05 13:34:00,
2013-01-05 08:39:00,25.0,20.9,30.18,ESE,114,0.0,1.0,84,0.00,,OVC030,0.00,VWS V14.01,2013-01-05 13:39:00,
2013-01-05 08:44:00,25.0,20.9,30.17,ESE,107,3.0,4.0,84,0.00,,OVC030,0.00,VWS V14.01,2013-01-05 13:44:00,
2013-01-05 08:49:00,25.0,21.1,30.17,ESE,112,2.0,4.0,85,0.00,,OVC030,0.00,VWS V14.01,2013-01-05 13:49:00,
2013-01-05 08:54:00,24.9,20.8,30.17,ESE,106,4.0,4.0,84,0.00,,OVC030,0.00,VWS V14.01,2013-01-05 13:54:00,
2013-01-05 08:59:00,24.9,20.8,30.17,ESE,117,2.0,3.0,84,0.00,,OVC030,0.00,VWS V14.01,2013-01-05 13:59:00,
2013-01-05 09:04:00,25.0,20.6,30.17,ENE,65,2.0,2.0,83,0.00,,OVC030,0.00,VWS V14.01,2013-01-05 14:04:00,
2013-01-05 09:09:00,24.9,20.5,30.16,ESE,109,1.0,2.0,83,0.00,,OVC030,0.00,VWS V14.01,2013-01-05 14:09:00,
2013-01-05 09:14:00,25.4,21.0,30.17,ESE,109,2.0,2.0,83,0.00,,OVC030,0.00,VWS V14.01,2013-01-05 14:14:00,
2013-01-05 09:19:00,25.1,20.7,30.17,ESE,109,2.0,2.0,83,0.00,,OVC030,0.00,VWS V14.01,2013-01-05 14:19:00,
2013-01-05 09:24:00,24.4,20.5,30.17,ESE,109,2.0,2.0,85,0.00,,OVC030,0.00,VWS V14.01,2013-01-05 14:24:00,
2013-01-05 09:29:00,25.7,21.3,30.17,ESE,109,0.0,0.0,83,0.00,,OVC030,0.00,VWS V14.01,2013-01-05 14:29:00,
2013-01-05 09:34:00,25.4,21.0,30.17,ESE,110,1.0,2.0,83,0.00,,OVC030,0.00,VWS V14.01,2013-01-05 14:34:00,
2013-01-05 09:39:00,26.1,21.4,30.17,SSE,155,1.0,2.0,82,0.00,,OVC030,0.00,VWS V14.01,2013-01-05 14:39:00,
2013-01-05 09:44:00,26.3,21.3,30.17,SE,136,3.0,3.0,81,0.00,,OVC030,0.00,VWS V14.01,2013-01-05 14:44:00,
2013-01-05 09:49:00,27.0,22.0,30.17,South,174,1.0,4.0,81,0.00,,OVC030,0.00,VWS V14.01,2013-01-05 14:49:00,
2013-01-05 09:54:00,27.2,21.9,30.17,SSE,150,0.0,1.0,80,0.00,,OVC030,0.00,VWS V14.01,2013-01-05 14:54:00,
2013-01-05 09:59:00,27.5,22.1,30.17,South,170,1.0,2.0,80,0.00,,OVC030,0.00,VWS V14.01,2013-01-05 14:59:00,
2013-01-05 10:04:00,27.5,22.1,30.17,ESE,119,4.0,5.0,80,0.00,,OVC030,0.00,VWS V14.01,2013-01-05 15:04:00,
2013-01-05 10:09:00,27.7,22.0,30.17,SE,124,1.0,2.0,79,0.00,,OVC030,0.00,VWS V14.01,2013-01-05 15:09:00,
2013-01-05 10:15:00,28.3,22.3,30.17,SE,135,2.0,3.0,78,0.00,,OVC030,0.00,VWS V14.01,2013-01-05 15:15:00,
2013-01-05 10:20:00,28.9,22.3,30.17,ESE,113,3.0,4.0,76,0.00,,OVC030,0.00,VWS V14.01,2013-01-05 15:20:00,
2013-01-05 10:25:00,29.6,22.7,30.16,ESE,121,4.0,4.0,75,0.00,,OVC030,0.00,VWS V14.01,2013-01-05 15:25:00,
2013-01-05 10:30:00,29.8,22.5,30.16,SE,131,3.0,4.0,74,0.00,,OVC030,0.00,VWS V14.01,2013-01-05 15:30:00,
2013-01-05 10:35:00,30.2,22.9,30.16,SE,125,2.0,5.0,74,0.00,,OVC030,0.00,VWS V14.01,2013-01-05 15:35:00,
2013-01-05 10:40:00,30.7,22.8,30.15,SE,125,3.0,4.0,72,0.00,,OVC030,0.00,VWS V14.01,2013-01-05 15:40:00,
2013-01-05 10:45:00,31.0,23.0,30.15,SE,134,3.0,5.0,72,0.00,,OVC030,0.00,VWS V14.01,2013-01-05 15:45:00,
2013-01-05 10:50:00,31.3,23.3,30.15,SE,128,2.0,5.0,72,0.00,,OVC030,0.00,VWS V14.01,2013-01-05 15:50:00,
2013-01-05 10:55:00,31.5,23.2,30.15,SW,217,2.0,3.0,71,0.00,,OVC030,0.00,VWS V14.01,2013-01-05 15:55:00,
2013-01-05 11:00:00,31.6,23.3,30.15,ESE,123,4.0,6.0,71,0.00,,OVC030,0.00,VWS V14.01,2013-01-05 16:00:00,
2013-01-05 11:05:00,31.6,23.3,30.15,ESE,123,5.0,7.0,71,0.00,,CLR,0.00,VWS V14.01,2013-01-05 16:05:00,
2013-01-05 11:10:00,31.6,23.3,30.15,ESE,118,4.0,6.0,71,0.00,,CLR,0.00,VWS V14.01,2013-01-05 16:10:00,
2013-01-05 11:15:00,31.8,23.5,30.15,SE,130,3.0,3.0,71,0.00,,CLR,0.00,VWS V14.01,2013-01-05 16:15:00,
2013-01-05 11:20:00,31.9,23.2,30.15,SE,137,1.0,4.0,70,0.00,,CLR,0.00,VWS V14.01,2013-01-05 16:20:00,
2013-01-05 11:25:00,32.1,23.1,30.15,SW,217,4.0,6.0,69,0.00,,CLR,0.00,VWS V14.01,2013-01-05 16:25:00,
2013-01-05 11:30:00,32.3,23.3,30.14,SW,214,5.0,9.0,69,0.00,,CLR,0.00,VWS V14.01,2013-01-05 16:30:00,
2013-01-05 11:35:00,32.2,23.2,30.14,SE,142,5.0,6.0,69,0.00,,CLR,0.00,VWS V14.01,2013-01-05 16:35:00,
2013-01-05 11:40:00,32.4,23.4,30.14,SW,219,8.0,10.0,69,0.00,,CLR,0.00,VWS V14.01,2013-01-05 16:40:00,
2013-01-05 11:45:00,32.4,23.4,30.13,SSW,200,2.0,5.0,69,0.00,,CLR,0.00,VWS V14.01,2013-01-05 16:45:00,
2013-01-05 11:50:00,32.4,23.0,30.13,SW,216,3.0,6.0,68,0.00,,CLR,0.00,VWS V14.01,2013-01-05 16:50:00,
2013-01-05 11:55:00,32.5,23.5,30.12,South,190,3.0,5.0,69,0.00,,CLR,0.00,VWS V14.01,2013-01-05 16:55:00,
2013-01-05 12:00:00,32.8,23.8,30.12,SSE,148,3.0,3.0,69,0.00,,CLR,0.00,VWS V14.01,2013-01-05 17:00:00,
2013-01-05 12:05:00,32.8,23.4,30.12,SE,127,5.0,6.0,68,0.00,,CLR,0.00,VWS V14.01,2013-01-05 17:05:00,
2013-01-05 12:10:00,32.8,23.4,30.11,SW,230,2.0,4.0,68,0.00,,CLR,0.00,VWS V14.01,2013-01-05 17:10:00,
2013-01-05 12:15:00,32.6,23.2,30.11,SSW,211,7.0,7.0,68,0.00,,CLR,0.00,VWS V14.01,2013-01-05 17:15:00,
2013-01-05 12:20:00,32.8,23.4,30.10,SE,128,2.0,7.0,68,0.00,,CLR,0.00,VWS V14.01,2013-01-05 17:20:00,
2013-01-05 12:25:00,32.6,23.6,30.10,SSW,209,5.0,6.0,69,0.00,,CLR,0.00,VWS V14.01,2013-01-05 17:25:00,
2013-01-05 12:30:00,32.7,23.7,30.09,SSW,211,2.0,5.0,69,0.00,,CLR,0.00,VWS V14.01,2013-01-05 17:30:00,
2013-01-05 12:35:00,32.8,23.8,30.09,SW,231,1.0,4.0,69,0.00,,CLR,0.00,VWS V14.01,2013-01-05 17:35:00,
2013-01-05 12:40:00,33.1,23.7,30.08,SE,140,3.0,4.0,68,0.00,,CLR,0.00,VWS V14.01,2013-01-05 17:40:00,
2013-01-05 12:45:00,33.1,23.4,30.08,SE,140,6.0,7.0,67,0.00,,CLR,0.00,VWS V14.01,2013-01-05 17:45:00,
2013-01-05 12:50:00,33.2,23.8,30.08,ESE,121,4.0,6.0,68,0.00,,CLR,0.00,VWS V14.01,2013-01-05 17:50:00,
2013-01-05 12:55:00,33.0,23.6,30.07,SE,134,5.0,8.0,68,0.00,,CLR,0.00,VWS V14.01,2013-01-05 17:55:00,
2013-01-05 13:00:00,33.4,24.0,30.07,SE,140,4.0,5.0,68,0.00,,CLR,0.00,VWS V14.01,2013-01-05 18:00:00,
2013-01-05 13:05:00,33.5,24.1,30.06,SSE,149,2.0,3.0,68,0.00,,CLR,0.00,VWS V14.01,2013-01-05 18:05:00,
2013-01-05 13:10:00,33.7,23.9,30.06,SW,219,2.0,3.0,67,0.00,,CLR,0.00,VWS V14.01,2013-01-05 18:10:00,
2013-01-05 13:15:00,33.7,23.9,30.05,SW,219,2.0,3.0,67,0.00,,CLR,0.00,VWS V14.01,2013-01-05 18:15:00,
2013-01-05 13:20:00,33.2,23.8,30.05,SE,135,3.0,4.0,68,0.00,,CLR,0.00,VWS V14.01,2013-01-05 18:20:00,
2013-01-05 13:25:00,33.1,23.7,30.05,SSE,152,2.0,2.0,68,0.00,,CLR,0.00,VWS V14.01,2013-01-05 18:25:00,
2013-01-05 13:30:00,32.9,23.5,30.05,SSE,158,2.0,2.0,68,0.00,,CLR,0.00,VWS V14.01,2013-01-05 18:30:00,
2013-01-05 13:35:00,32.8,23.4,30.04,SE,130,4.0,4.0,68,0.00,,CLR,0.00,VWS V14.01,2013-01-05 18:35:00,
2013-01-05 13:40:00,32.7,23.3,30.04,ESE,109,5.0,5.0,68,0.00,,CLR,0.00,VWS V14.01,2013-01-05 18:40:00,
2013-01-05 13:45:00,32.8,23.4,30.04,ESE,116,3.0,5.0,68,0.00,,CLR,0.00,VWS V14.01,2013-01-05 18:45:00,
2013-01-05 13:50:00,32.9,23.5,30.03,ESE,103,6.0,7.0,68,0.00,,CLR,0.00,VWS V14.01,2013-01-05 18:50:00,
2013-01-05 13:55:00,32.9,23.5,30.03,ESE,120,5.0,10.0,68,0.00,,CLR,0.00,VWS V14.01,2013-01-05 18:55:00,
2013-01-05 14:00:00,32.9,23.5,30.03,ESE,119,7.0,8.0,68,0.00,,CLR,0.00,VWS V14.01,2013-01-05 19:00:00,
2013-01-05 14:05:00,33.0,23.6,30.03,SE,139,2.0,3.0,68,0.00,,CLR,0.00,VWS V14.01,2013-01-05 19:05:00,
2013-01-05 14:10:00,33.2,23.8,30.02,SE,135,5.0,5.0,68,0.00,,CLR,0.00,VWS V14.01,2013-01-05 19:10:00,
2013-01-05 14:15:00,33.3,23.5,30.02,SE,124,3.0,4.0,67,0.00,,CLR,0.00,VWS V14.01,2013-01-05 19:15:00,
2013-01-05 14:21:00,33.2,23.8,30.02,SE,136,5.0,5.0,68,0.00,,CLR,0.00,VWS V14.01,2013-01-05 19:21:00,
2013-01-05 14:26:00,33.0,23.6,30.02,SSE,155,3.0,4.0,68,0.00,,CLR,0.00,VWS V14.01,2013-01-05 19:26:00,
2013-01-05 14:31:00,33.3,23.9,30.02,SE,128,2.0,3.0,68,0.01,,CLR,0.01,VWS V14.01,2013-01-05 19:31:00,
2013-01-05 14:36:00,33.3,23.5,30.02,SE,130,3.0,4.0,67,0.01,,CLR,0.01,VWS V14.01,2013-01-05 19:36:00,
2013-01-05 14:41:00,33.5,23.7,30.02,SE,132,3.0,3.0,67,0.01,,CLR,0.01,VWS V14.01,2013-01-05 19:41:00,
2013-01-05 14:45:00,33.5,23.7,30.02,ESE,119,2.0,4.0,67,0.01,,CLR,0.01,VWS V14.01,2013-01-05 19:45:00,
2013-01-05 14:50:00,33.7,23.9,30.02,SE,142,3.0,4.0,67,0.01,,CLR,0.01,VWS V14.01,2013-01-05 19:50:00,
2013-01-05 14:55:00,33.8,24.0,30.01,SE,140,3.0,5.0,67,0.01,,CLR,0.01,VWS V14.01,2013-01-05 19:55:00,
2013-01-05 15:01:00,34.1,24.3,30.01,ESE,113,5.0,7.0,67,0.01,,CLR,0.01,VWS V14.01,2013-01-05 20:01:00,
2013-01-05 15:06:00,34.3,24.1,30.01,ESE,114,5.0,5.0,66,0.01,,CLR,0.01,VWS V14.01,2013-01-05 20:06:00,
2013-01-05 15:11:00,34.3,24.1,30.01,ESE,105,0.0,2.0,66,0.01,,CLR,0.01,VWS V14.01,2013-01-05 20:11:00,
2013-01-05 15:16:00,34.6,24.4,30.01,SE,133,7.0,10.0,66,0.01,,CLR,0.01,VWS V14.01,2013-01-05 20:16:00,
2013-01-05 15:21:00,35.0,24.4,30.00,SE,141,4.0,5.0,65,0.01,,CLR,0.01,VWS V14.01,2013-01-05 20:21:00,
2013-01-05 15:26:00,34.7,24.5,30.00,SE,128,3.0,3.0,66,0.01,,CLR,0.01,VWS V14.01,2013-01-05 20:26:00,
2013-01-05 15:31:00,34.7,24.5,30.00,SSW,209,2.0,5.0,66,0.01,,CLR,0.02,VWS V14.01,2013-01-05 20:31:00,
2013-01-05 15:36:00,35.0,24.4,30.00,SW,231,1.0,1.0,65,0.01,,CLR,0.02,VWS V14.01,2013-01-05 20:36:00,
2013-01-05 15:41:00,34.8,24.6,30.00,SE,138,2.0,2.0,66,0.01,,CLR,0.02,VWS V14.01,2013-01-05 20:41:00,
2013-01-05 15:46:00,34.9,24.7,30.00,SW,234,4.0,6.0,66,0.01,,CLR,0.02,VWS V14.01,2013-01-05 20:46:00,
2013-01-05 15:51:00,35.0,25.2,29.99,SW,233,1.0,3.0,67,0.01,,CLR,0.02,VWS V14.01,2013-01-05 20:51:00,
2013-01-05 15:56:00,35.0,24.8,29.99,SSW,207,3.0,6.0,66,0.01,,CLR,0.02,VWS V14.01,2013-01-05 20:56:00,
2013-01-05 16:01:00,34.9,25.1,29.99,WSW,238,2.0,3.0,67,0.01,,CLR,0.02,VWS V14.01,2013-01-05 21:01:00,
2013-01-05 16:06:00,34.9,25.1,29.99,SW,218,1.0,2.0,67,0.01,,CLR,0.02,VWS V14.01,2013-01-05 21:06:00,
2013-01-05 16:11:00,35.0,25.2,29.99,WSW,242,3.0,4.0,67,0.01,,CLR,0.02,VWS V14.01,2013-01-05 21:11:00,
2013-01-05 16:16:00,34.9,25.4,29.99,WSW,246,2.0,2.0,68,0.01,,CLR,0.02,VWS V14.01,2013-01-05 21:16:00,
2013-01-05 16:21:00,34.9,25.4,29.99,West,261,4.0,4.0,68,0.01,,CLR,0.02,VWS V14.01,2013-01-05 21:21:00,
2013-01-05 16:26:00,34.8,25.7,29.98,SW,234,4.0,4.0,69,0.01,,CLR,0.02,VWS V14.01,2013-01-05 21:26:00,
2013-01-05 16:31:00,34.5,25.7,29.98,West,264,6.0,6.0,70,0.01,,CLR,0.02,VWS V14.01,2013-01-05 21:31:00,
2013-01-05 16:36:00,34.4,26.0,29.98,West,266,1.0,2.0,71,0.01,,CLR,0.02,VWS V14.01,2013-01-05 21:36:00,
2013-01-05 16:41:00,34.2,25.8,29.98,SW,231,2.0,3.0,71,0.01,,CLR,0.02,VWS V14.01,2013-01-05 21:41:00,
2013-01-05 16:46:00,34.1,26.0,29.97,WSW,253,2.0,3.0,72,0.01,,CLR,0.02,VWS V14.01,2013-01-05 21:46:00,
2013-01-05 16:51:00,34.0,25.9,29.97,WNW,283,2.0,3.0,72,0.01,,CLR,0.02,VWS V14.01,2013-01-05 21:51:00,
2013-01-05 16:56:00,33.8,26.1,29.97,West,276,2.0,3.0,73,0.01,,CLR,0.02,VWS V14.01,2013-01-05 21:56:00,
2013-01-05 17:01:00,33.8,26.1,29.97,WSW,246,1.0,2.0,73,0.00,,CLR,0.02,VWS V14.01,2013-01-05 22:01:00,
2013-01-05 17:06:00,33.8,26.1,29.96,SSW,209,1.0,2.0,73,0.00,,OVC029,0.02,VWS V14.01,2013-01-05 22:06:00,
2013-01-05 17:11:00,33.7,26.3,29.96,WSW,243,0.0,1.0,74,0.00,,OVC029,0.02,VWS V14.01,2013-01-05 22:11:00,
2013-01-05 17:16:00,33.5,26.1,29.95,SW,234,0.0,2.0,74,0.00,,OVC029,0.02,VWS V14.01,2013-01-05 22:16:00,
2013-01-05 17:21:00,33.5,26.4,29.95,WSW,240,6.0,6.0,75,0.00,,OVC029,0.02,VWS V14.01,2013-01-05 22:21:00,
2013-01-05 17:26:00,33.3,26.6,29.95,SSW,196,6.0,6.0,76,0.00,,OVC029,0.02,VWS V14.01,2013-01-05 22:26:00,
2013-01-05 17:31:00,33.2,26.8,29.96,SW,221,3.0,5.0,77,0.00,,OVC029,0.02,VWS V14.01,2013-01-05 22:31:00,
2013-01-05 17:36:00,32.8,26.7,29.96,SW,218,4.0,5.0,78,0.00,,OVC029,0.02,VWS V14.01,2013-01-05 22:36:00,
2013-01-05 17:41:00,32.5,26.7,29.96,SSW,211,5.0,6.0,79,0.00,,OVC029,0.02,VWS V14.01,2013-01-05 22:41:00,
2013-01-05 17:46:00,32.2,26.4,29.95,SSE,158,0.0,2.0,79,0.00,,OVC029,0.02,VWS V14.01,2013-01-05 22:46:00,
2013-01-05 17:51:00,31.9,26.4,29.95,South,169,2.0,2.0,80,0.00,,OVC029,0.02,VWS V14.01,2013-01-05 22:51:00,
2013-01-05 17:56:00,31.7,26.5,29.95,SSE,168,4.0,5.0,81,0.00,,OVC029,0.02,VWS V14.01,2013-01-05 22:56:00,
2013-01-05 18:01:00,31.6,26.5,29.95,SW,221,3.0,5.0,81,0.00,,SCT026,0.02,VWS V14.01,2013-01-05 23:01:00,
2013-01-05 18:06:00,31.5,26.4,29.94,South,184,2.0,7.0,81,0.00,,SCT026,0.02,VWS V14.01,2013-01-05 23:06:00,
2013-01-05 18:11:00,31.4,26.2,29.94,SSW,192,0.0,3.0,81,0.00,,SCT026,0.02,VWS V14.01,2013-01-05 23:11:00,
2013-01-05 18:16:00,31.3,26.5,29.94,South,190,2.0,4.0,82,0.00,,SCT026,0.02,VWS V14.01,2013-01-05 23:16:00,
2013-01-05 18:21:00,31.2,26.4,29.94,WSW,244,2.0,4.0,82,0.00,,SCT026,0.02,VWS V14.01,2013-01-05 23:21:00,
2013-01-05 18:27:00,31.1,26.3,29.93,SSE,148,2.0,2.0,82,0.00,,SCT026,0.02,VWS V14.01,2013-01-05 23:27:00,
2013-01-05 18:32:00,31.0,26.2,29.93,SW,218,4.0,4.0,82,0.00,,SCT026,0.02,VWS V14.01,2013-01-05 23:32:00,
2013-01-05 18:37:00,30.9,26.1,29.93,South,171,3.0,4.0,82,0.00,,SCT026,0.02,VWS V14.01,2013-01-05 23:37:00,
2013-01-05 18:42:00,30.8,26.0,29.93,South,175,1.0,1.0,82,0.00,,SCT026,0.02,VWS V14.01,2013-01-05 23:42:00,
2013-01-05 18:47:00,30.8,26.0,29.93,South,171,2.0,2.0,82,0.00,,SCT026,0.02,VWS V14.01,2013-01-05 23:47:00,
2013-01-05 18:52:00,30.8,26.0,29.93,SW,226,3.0,3.0,82,0.00,,SCT026,0.02,VWS V14.01,2013-01-05 23:52:00,
2013-01-05 18:57:00,30.8,26.0,29.93,SSE,156,1.0,3.0,82,0.00,,SCT026,0.02,VWS V14.01,2013-01-05 23:57:00,
2013-01-05 19:02:00,30.8,26.0,29.92,SSW,212,5.0,5.0,82,0.00,,OVC027,0.02,VWS V14.01,2013-01-06 00:02:00,
2013-01-05 19:07:00,30.8,26.0,29.92,SW,222,1.0,3.0,82,0.00,,OVC027,0.02,VWS V14.01,2013-01-06 00:07:00,
2013-01-05 19:12:00,30.8,26.0,29.92,ESE,113,3.0,3.0,82,0.00,,OVC027,0.02,VWS V14.01,2013-01-06 00:12:00,
2013-01-05 19:17:00,30.8,26.0,29.92,SSW,209,5.0,6.0,82,0.00,,OVC027,0.02,VWS V14.01,2013-01-06 00:17:00,
2013-01-05 19:22:00,30.8,26.0,29.92,SW,229,1.0,6.0,82,0.00,,OVC027,0.02,VWS V14.01,2013-01-06 00:22:00,
2013-01-05 19:27:00,30.9,25.8,29.91,WSW,241,3.0,4.0,81,0.00,,OVC027,0.02,VWS V14.01,2013-01-06 00:27:00,
2013-01-05 19:32:00,30.9,25.8,29.91,SE,133,2.0,3.0,81,0.00,,OVC027,0.02,VWS V14.01,2013-01-06 00:32:00,
2013-01-05 19:37:00,31.0,25.9,29.91,SE,128,4.0,5.0,81,0.00,,OVC027,0.02,VWS V14.01,2013-01-06 00:37:00,
2013-01-05 19:42:00,31.0,25.9,29.91,South,184,2.0,6.0,81,0.00,,OVC027,0.02,VWS V14.01,2013-01-06 00:42:00,
2013-01-05 19:47:00,31.0,25.9,29.91,SE,130,6.0,7.0,81,0.00,,OVC027,0.02,VWS V14.01,2013-01-06 00:47:00,
2013-01-05 19:52:00,31.1,26.0,29.90,West,277,2.0,4.0,81,0.00,,OVC027,0.02,VWS V14.01,2013-01-06 00:52:00,
2013-01-05 19:57:00,31.1,26.0,29.90,WSW,248,2.0,4.0,81,0.00,,OVC027,0.02,VWS V14.01,2013-01-06 00:57:00,
2013-01-05 20:02:00,31.1,26.0,29.90,ESE,121,2.0,4.0,81,0.00,,OVC031,0.02,VWS V14.01,2013-01-06 01:02:00,
2013-01-05 20:07:00,31.1,26.3,29.90,WSW,250,3.0,5.0,82,0.00,,OVC031,0.02,VWS V14.01,2013-01-06 01:07:00,
2013-01-05 20:12:00,31.2,26.4,29.89,SW,216,3.0,5.0,82,0.00,,OVC031,0.02,VWS V14.01,2013-01-06 01:12:00,
2013-01-05 20:17:00,31.2,26.4,29.89,SW,223,2.0,4.0,82,0.00,,OVC031,0.02,VWS V14.01,2013-01-06 01:17:00,
2013-01-05 20:22:00,31.3,26.5,29.89,SW,232,2.0,2.0,82,0.00,,OVC031,0.02,VWS V14.01,2013-01-06 01:22:00,
2013-01-05 20:27:00,31.3,26.5,29.89,SE,129,4.0,7.0,82,0.00,,OVC031,0.02,VWS V14.01,2013-01-06 01:27:00,
2013-01-05 20:32:00,31.4,26.5,29.89,SW,221,4.0,6.0,82,0.00,,OVC031,0.02,VWS V14.01,2013-01-06 01:32:00,
2013-01-05 20:37:00,31.4,26.5,29.89,SE,141,2.0,4.0,82,0.00,,OVC031,0.02,VWS V14.01,2013-01-06 01:37:00,
2013-01-05 20:42:00,31.3,26.5,29.88,East,99,3.0,5.0,82,0.00,,OVC031,0.02,VWS V14.01,2013-01-06 01:42:00,
2013-01-05 20:47:00,31.3,26.5,29.88,SE,134,2.0,4.0,82,0.00,,OVC031,0.02,VWS V14.01,2013-01-06 01:47:00,
2013-01-05 20:52:00,31.2,26.4,29.88,SSW,203,4.0,4.0,82,0.00,,OVC031,0.02,VWS V14.01,2013-01-06 01:52:00,
2013-01-05 20:57:00,31.1,26.5,29.88,ESE,118,4.0,4.0,83,0.00,,OVC031,0.02,VWS V14.01,2013-01-06 01:57:00,
2013-01-05 21:02:00,31.0,26.5,29.88,WSW,243,4.0,4.0,83,0.00,,OVC038,0.02,VWS V14.01,2013-01-06 02:02:00,
2013-01-05 21:07:00,31.0,26.5,29.88,SE,136,2.0,3.0,83,0.00,,OVC038,0.02,VWS V14.01,2013-01-06 02:07:00,
2013-01-05 21:12:00,30.7,26.2,29.87,SSE,155,3.0,4.0,83,0.00,,OVC038,0.02,VWS V14.01,2013-01-06 02:12:00,
2013-01-05 21:17:00,30.4,25.9,29.87,South,188,2.0,4.0,83,0.00,,OVC038,0.02,VWS V14.01,2013-01-06 02:17:00,
2013-01-05 21:22:00,30.2,25.7,29.87,SE,136,3.0,4.0,83,0.00,,OVC038,0.02,VWS V14.01,2013-01-06 02:22:00,
2013-01-05 21:27:00,30.2,26.0,29.86,SW,214,2.0,4.0,84,0.00,,OVC038,0.02,VWS V14.01,2013-01-06 02:27:00,
2013-01-05 21:32:00,30.2,26.0,29.87,SE,136,1.0,2.0,84,0.00,,OVC038,0.02,VWS V14.01,2013-01-06 02:32:00,
2013-01-05 21:37:00,30.3,26.1,29.86,SSE,159,0.0,2.0,84,0.00,,OVC038,0.02,VWS V14.01,2013-01-06 02:37:00,
2013-01-05 21:42:00,30.3,26.1,29.86,SW,221,2.0,3.0,84,0.00,,OVC038,0.02,VWS V14.01,2013-01-06 02:42:00,
2013-01-05 21:47:00,30.5,26.2,29.86,SW,224,1.0,3.0,84,0.00,,OVC037,0.02,VWS V14.01,2013-01-06 02:47:00,
2013-01-05 21:52:00,30.6,26.6,29.86,SSW,213,1.0,2.0,85,0.00,,OVC037,0.02,VWS V14.01,2013-01-06 02:52:00,
2013-01-05 21:57:00,30.7,26.7,29.86,SSW,208,1.0,2.0,85,0.00,,OVC037,0.02,VWS V14.01,2013-01-06 02:57:00,
2013-01-05 22:02:00,30.7,26.7,29.86,South,179,2.0,2.0,85,0.00,,OVC020,0.02,VWS V14.01,2013-01-06 03:02:00,
2013-01-05 22:07:00,30.8,26.8,29.85,SSW,200,2.0,4.0,85,0.00,,OVC020,0.02,VWS V14.01,2013-01-06 03:07:00,
2013-01-05 22:12:00,30.9,26.9,29.85,SW,217,4.0,5.0,85,0.00,,OVC020,0.02,VWS V14.01,2013-01-06 03:12:00,
2013-01-05 22:17:00,31.0,27.0,29.85,South,176,1.0,3.0,85,0.00,,OVC020,0.02,VWS V14.01,2013-01-06 03:17:00,
2013-01-05 22:22:00,31.2,27.2,29.85,SSW,197,4.0,4.0,85,0.00,,OVC020,0.02,VWS V14.01,2013-01-06 03:22:00,
2013-01-05 22:27:00,31.5,27.8,29.85,South,169,2.0,5.0,86,0.00,,OVC020,0.02,VWS V14.01,2013-01-06 03:27:00,
2013-01-05 22:32:00,31.7,28.0,29.85,SSW,213,2.0,2.0,86,0.00,,OVC020,0.02,VWS V14.01,2013-01-06 03:32:00,
2013-01-05 22:37:00,31.9,28.2,29.84,SW,217,1.0,3.0,86,0.00,,OVC020,0.02,VWS V14.01,2013-01-06 03:37:00,
2013-01-05 22:42:00,32.0,28.3,29.84,SW,225,3.0,4.0,86,0.00,,OVC020,0.02,VWS V14.01,2013-01-06 03:42:00,
2013-01-05 22:47:00,32.2,28.5,29.84,South,176,1.0,5.0,86,0.00,,OVC020,0.02,VWS V14.01,2013-01-06 03:47:00,
2013-01-05 22:52:00,32.3,28.6,29.84,SW,223,1.0,4.0,86,0.00,,OVC020,0.02,VWS V14.01,2013-01-06 03:52:00,
2013-01-05 22:57:00,32.4,28.7,29.84,SSE,159,1.0,3.0,86,0.00,,OVC020,0.02,VWS V14.01,2013-01-06 03:57:00,
2013-01-05 23:02:00,32.5,28.8,29.83,SSW,213,4.0,5.0,86,0.00,,OVC016,0.02,VWS V14.01,2013-01-06 04:02:00,
2013-01-05 23:07:00,32.7,29.0,29.83,SSW,208,2.0,4.0,86,0.00,,OVC016,0.02,VWS V14.01,2013-01-06 04:07:00,
2013-01-05 23:13:00,32.7,29.0,29.83,WSW,241,3.0,3.0,86,0.00,,OVC016,0.02,VWS V14.01,2013-01-06 04:13:00,
2013-01-05 23:18:00,32.8,29.1,29.83,SSW,212,1.0,3.0,86,0.00,,OVC016,0.02,VWS V14.01,2013-01-06 04:18:00,
2013-01-05 23:23:00,32.9,29.5,29.83,SW,227,5.0,5.0,87,0.00,,OVC016,0.02,VWS V14.01,2013-01-06 04:23:00,
2013-01-05 23:28:00,33.0,29.6,29.83,SSW,212,5.0,5.0,87,0.00,,OVC016,0.02,VWS V14.01,2013-01-06 04:28:00,
2013-01-05 23:33:00,33.2,29.8,29.83,South,176,3.0,4.0,87,0.00,,OVC014,0.02,VWS V14.01,2013-01-06 04:33:00,
2013-01-05 23:38:00,33.2,29.5,29.83,SSW,198,1.0,2.0,86,0.00,,OVC014,0.02,VWS V14.01,2013-01-06 04:38:00,
2013-01-05 23:43:00,33.2,29.8,29.83,SW,231,3.0,4.0,87,0.00,,OVC014,0.02,VWS V14.01,2013-01-06 04:43:00,
2013-01-05 23:48:00,33.4,30.0,29.83,SW,215,3.0,5.0,87,0.00,,OVC014,0.02,VWS V14.01,2013-01-06 04:48:00,
2013-01-05 23:53:00,33.6,30.1,29.83,West,269,0.0,2.0,87,0.00,,OVC014,0.02,VWS V14.01,2013-01-06 04:53:00,
2013-01-05 23:58:00,33.8,30.6,29.83,West,272,1.0,2.0,88,0.00,,OVC014,0.02,VWS V14.01,2013-01-06 04:58:00,